Temperature
7 7 7 7 7 7 7 7 6 5 5 5 6 6 6 6 6 6 5 5 5 5 5 5 5 5 5 5 5 4 4 4 4 4 4 4 4 4
7 7 7 7 7 7 6 6 6 6 5 5 5 5 5 5 5 5 5 5 5 5 5 5 4 4 4 4 4 4 4 4 4 4 4 4 4 4
6 6 6 6 6 6 6 6 6 5 5 5 5 5 5 5 4 4 4 4 4 4 4 4 4 4 4 3 3 3 3 3 3 3 3 3 3 3
6 6 6 6 6 6 6 5 5 5 5 5 5 5 4 4 4 4 4 4 4 4 4 3 3 3 3 3 3 3 3 3 3 2 2 2 2 2
6 6 6 6 5 5 5 5 5 5 4 4 4 4 4 4 3 3 3 3 3 3 3 3 3 3 3 3 2 2 2 2 2 2 2 2 2 2
5 5 5 5 5 5 5 5 4 4 4 4 3 3 3 3 3 3 3 3 3 2 2 2 2 2 2 2 2 2 2 1 1 1 1 1 1 1
5 5 5 5 5 4 4 4 4 4 3 3 3 3 2 2 2 2 2 2 2 2 2 2 1 2 2 2 1 1 1 1 1 1 1 1 1 1
4 4 4 4 4 4 4 4 3 3 3 3 2 2 2 2 2 1 1 1 1 1 1 1 1 1 1 1 1 1 0 0 0 0 0 0 -0 0
4 4 4 4 4 4 3 3 3 3 2 2 2 2 2 1 1 1 1 0 0 1 0 0 0 0 0 0 0 0 0 -0 -0 -0 -0 -0 -1 -0
4 4 4 4 3 3 3 3 3 2 2 2 1 1 1 1 1 1 0 0 0 0 -0 -1 -0 -0 -1 -0 -0 -0 -0 -1 -1 -1 -1 -1 -1 -1
3 3 3 3 3 3 2 2 2 2 2 1 1 1 1 1 0 0 -0 -1 -1 -1 -1 -1 -1 -1 -1 -1 -1 -1 -1 -1 -1 -1 -1 -1 -1 -1
2 2 2 2 2 2 2 1 1 1 1 1 1 1 0 0 -0 -0 -1 -1 -1 -2 -1 -2 -2 -2 -2 -2 -2 -2 -2 -2 -2 -2 -2 -2 -2 -2
2 2 2 2 2 1 1 1 1 0 0 0 -0 0 -0 -0 -1 -1 -1 -2 -2 -2 -2 -2 -3 -3 -3 -3 -2 -2 -2 -3 -3 -2 -2 -2 -2 -2
1 1 1 1 1 1 1 0 0 -0 -0 -0 -0 -1 -1 -1 -1 -1 -2 -2 -2 -2 -2 -3 -3 -3 -4 -3 -3 -3 -3 -3 -3 -3 -3 -3 -3 -3
1 1 1 1 0 0 -0 -0 -1 -1 -1 -1 -1 -1 -1 -1 -2 -2 -2 -2 -2 -2 -3 -3 -3 -3 -4 -4 -4 -4 -4 -4 -4 -4 -4 -4 -4 -4
-0 -0 -0 -0 -0 -1 -1 -1 -1 -1 -1 -2 -2 -2 -2 -2 -2 -2 -2 -2 -2 -2 -3 -3 -3 -4 -4 -4 -4 -4 -4 -4 -4 -4 -4 -4 -4 -4
-1 -1 -1 -1 -1 -2 -2 -2 -2 -2 -2 -2 -2 -2 -2 -3 -3 -3 -3 -3 -3 -3 -3 -3 -4 -4 -4 -5 -5 -4 -5 -5 -5 -5 -5 -5 -5 -4
-2 -2 -2 -2 -2 -2 -2 -3 -3 -3 -3 -3 -3 -3 -3 -3 -3 -3 -4 -3 -4 -4 -4 -4 -4 -5 -5 -5 -5 -5 -5 -5 -5 -5 -5 -5 -5 -5
-2 -2 -3 -3 -3 -3 -3 -3 -3 -3 -3 -4 -4 -4 -4 -4 -4 -4 -4 -4 -4 -4 -4 -5 -5 -5 -6 -6 -5 -5 -5 -5 -6 -6 -6 -6 -6 -5
-3 -3 -3 -3 -3 -4 -4 -4 -4 -4 -4 -4 -4 -4 -4 -4 -5 -5 -5 -5 -5 -5 -5 -5 -5 -6 -6 -6 -6 -5 -5 -6 -6 -6 -6 -6 -6 -5
-4 -4 -4 -4 -4 -4 -4 -4 -4 -4 -4 -5 -5 -5 -5 -5 -5 -5 -5 -5 -5 -6 -6 -6 -6 -6 -6 -6 -6 -6 -6 -6 -6 -6 -6 -6 -6 -6
-4 -5 -5 -5 -5 -5 -5 -5 -5 -5 -5 -5 -5 -5 -5 -5 -5 -6 -6 -6 -6 -6 -6 -6 -6 -6 -6 -7 -7 -7 -6 -6 -6 -6 -6 -7 -7 -7
-5 -5 -5 -5 -5 -5 -5 -5 -5 -5 -5 -6 -6 -6 -6 -6 -6 -6 -6 -6 -6 -7 -7 -7 -7 -7 -7 -7 -7 -7 -7 -7 -7 -6 -6 -6 -7 -7
Wind_Speed
6 6 4 3 3 3 3 3 3 3 3 3 2 2 2 4 4 4 5 5 6 7 8 8 8 9 9 9 9 10 11 11 12 13 13 13 14 15
5 6 5 4 3 3 3 3 3 3 3 3 3 3 3 4 5 6 6 6 7 7 8 8 9 10 9 10 10 11 11 11 12 13 13 13 14 14
6 6 6 5 4 3 3 3 3 3 3 2 2 2 3 4 4 5 6 6 7 7 8 9 9 10 10 10 11 11 11 12 13 13 14 14 14 15
7 6 6 4 5 4 3 3 3 3 3 3 3 3 4 4 4 5 5 6 7 8 8 9 10 10 11 11 11 11 12 12 13 14 14 15 15 15
7 7 6 6 5 4 4 3 3 2 2 3 3 2 3 3 4 4 5 5 6 7 8 9 10 11 11 12 12 12 12 13 14 14 15 15 15 16
6 6 6 6 6 5 4 4 3 3 3 3 2 3 3 4 4 4 4 5 5 7 7 8 9 11 11 12 12 13 13 14 14 15 15 15 15 16
6 6 5 5 5 5 4 4 4 3 3 3 3 3 4 4 4 4 5 5 6 5 5 6 7 8 9 10 11 12 13 15 15 15 15 16 16 16
6 5 5 6 6 5 5 5 6 6 5 4 4 5 6 5 4 4 5 6 6 4 5 7 7 7 8 9 11 13 15 15 15 15 16 17 17 17
6 5 4 4 5 5 5 5 5 6 7 6 7 7 6 6 5 6 6 7 7 6 6 8 7 8 8 10 12 14 15 15 14 15 16 17 18 17
6 6 6 5 5 5 4 4 4 5 6 6 6 7 6 6 6 7 7 7 7 6 6 7 7 8 8 10 12 13 13 14 15 16 18 18 18 18
4 5 6 6 6 6 5 4 4 4 4 5 6 7 7 8 7 4 5 5 7 6 5 5 6 8 8 8 9 11 13 14 15 17 18 17 17 17
3 4 5 6 6 6 5 5 5 4 3 3 4 5 5 6 7 6 6 6 6 5 4 4 6 6 6 5 6 8 10 12 14 16 16 15 15 12
3 3 4 5 5 6 6 5 5 4 4 4 4 4 4 3 4 5 6 6 6 6 4 4 5 5 6 6 7 8 9 9 11 12 13 14 14 12
4 3 3 5 5 5 5 4 4 3 3 3 4 4 4 4 4 5 6 7 7 7 7 6 5 6 7 8 8 7 8 9 10 9 9 11 12 13
3 3 3 4 3 3 4 4 3 3 3 4 4 4 4 4 3 4 5 5 6 7 7 7 7 6 7 8 8 8 9 8 8 7 8 9 9 9
2 2 2 2 2 2 3 3 3 3 3 4 4 3 3 3 3 3 4 4 4 5 6 7 8 7 7 9 9 10 9 7 7 8 8 9 9 9
2 1 1 1 1 2 2 2 2 2 3 3 3 3 3 3 4 3 4 4 5 6 6 5 6 8 8 8 9 10 9 9 8 8 8 9 8 8
2 2 2 2 2 2 2 3 3 3 3 3 3 4 4 4 4 4 4 4 5 6 6 5 5 5 6 6 9 9 8 8 8 8 8 8 9 9
2 2 2 2 2 3 3 3 4 3 3 3 4 4 4 4 4 5 4 5 6 6 6 5 5 5 7 8 5 6 7 8 8 8 8 8 9 9
1 2 2 3 3 3 3 3 3 3 3 4 4 4 4 5 5 5 5 6 6 6 6 5 5 6 7 8 7 7 9 8 8 8 8 8 8 11
2 2 2 2 3 3 4 4 4 4 4 4 5 5 5 5 6 6 6 7 7 7 7 7 6 7 6 5 7 7 7 9 9 8 8 8 8 7
2 2 3 3 3 4 4 4 4 5 5 5 5 5 5 5 6 7 6 6 7 7 8 6 5 5 5 6 8 9 8 8 9 11 12 11 7 6
3 3 3 3 3 4 4 5 5 5 5 5 6 6 6 6 6 6 7 7 7 7 7 6 6 5 6 7 8 8 9 9 7 7 7 9 11 14
Wind_Direction
179 178 176 174 173 181 183 189 198 220 236 229 225 232 275 291 298 298 302 307 304 302 302 304 305 303 300 300 300 301 301 301 300 298 289 287 287 286
177 181 181 178 174 182 192 206 221 224 234 224 240 253 261 278 291 293 296 300 296 294 294 296 296 297 299 299 299 299 299 299 297 298 292 293 292 291
179 187 189 184 182 188 194 203 214 218 232 252 257 253 252 260 276 283 289 293 295 291 290 292 293 294 296 296 298 298 297 298 297 297 294 292 292 292
188 190 193 188 193 195 199 208 216 227 231 238 251 255 261 259 265 273 283 288 289 288 286 285 286 288 290 292 294 294 296 297 297 295 293 292 292 292
194 194 196 192 200 203 208 215 220 222 233 231 249 259 268 264 272 278 281 285 290 288 285 281 281 284 288 289 288 289 292 293 293 292 291 289 289 291
198 200 200 200 205 205 210 216 213 213 214 222 239 256 265 270 271 277 286 290 290 293 286 285 285 285 285 285 284 285 288 290 290 290 290 288 287 289
198 204 206 203 208 209 210 212 208 214 217 225 239 253 256 264 266 277 283 293 291 283 288 288 289 289 291 285 281 283 288 290 289 290 292 290 288 288
199 204 203 198 198 207 215 222 221 219 220 231 242 247 253 261 268 272 280 287 287 281 287 290 287 285 288 286 285 289 290 290 289 290 293 292 289 288
202 202 206 205 203 209 215 226 235 239 235 238 242 250 258 258 262 270 270 274 282 288 290 286 286 285 289 287 286 288 289 290 291 292 292 293 290 286
205 206 209 210 207 206 215 227 241 248 244 244 250 258 261 259 259 267 273 280 285 281 278 281 288 288 292 288 283 284 288 290 292 294 293 292 289 285
209 209 210 213 202 197 207 221 241 258 258 253 264 268 268 262 257 261 265 273 282 284 278 276 288 297 293 284 280 283 287 289 292 293 293 289 287 285
208 211 212 212 204 200 212 218 233 251 258 265 266 265 263 256 249 249 254 263 278 280 267 269 285 299 293 281 282 291 294 292 294 296 296 292 290 288
206 215 213 201 207 217 227 231 231 247 253 256 262 267 268 265 262 262 260 259 266 271 268 270 279 282 277 288 291 290 293 298 301 299 297 296 291 287
213 219 215 201 214 231 236 226 225 235 242 248 254 260 263 268 272 276 274 273 270 272 270 266 265 270 278 285 289 294 296 296 297 297 298 299 295 289
223 218 213 206 219 231 215 219 227 232 236 245 251 260 269 275 281 286 282 280 280 277 270 267 266 269 270 275 283 289 295 295 289 292 301 301 297 296
204 179 178 197 216 222 228 232 234 235 242 250 261 270 276 276 273 276 280 284 288 287 278 273 271 270 272 276 278 282 284 285 290 296 300 299 295 290
195 205 226 231 233 242 254 259 253 247 252 258 262 266 268 271 274 276 274 276 276 283 290 289 281 275 268 271 274 275 280 285 288 296 299 296 292 289
184 212 227 239 244 247 250 260 262 257 256 257 259 262 263 266 270 273 272 271 273 277 282 288 292 291 283 267 249 267 277 285 292 294 292 292 293 294
198 222 238 248 255 255 255 258 264 266 263 257 256 258 261 263 265 266 266 269 274 277 280 282 281 280 285 291 275 239 271 287 292 290 287 288 290 294
228 236 246 255 259 262 264 264 266 266 262 258 257 256 255 258 262 264 263 266 273 279 280 277 272 272 276 286 290 286 267 274 284 287 291 291 289 289
266 264 265 265 266 269 270 266 264 263 264 263 262 260 257 258 261 263 265 266 270 273 274 276 274 277 281 283 281 283 284 275 274 277 285 290 294 293
277 276 275 271 270 269 269 266 264 263 263 264 265 265 262 259 260 262 263 264 266 269 275 280 282 278 273 274 280 288 296 299 293 285 271 263 272 280
285 282 278 275 270 268 267 265 263 263 262 263 264 264 263 262 262 262 263 264 266 269 273 278 280 275 273 274 279 287 293 299 302 306 298 283 272 273
Height
1519 1522 1524 1525 1527 1529 1531 1532 1533 1533 1533 1534 1534 1535 1535 1535 1534 1534 1533 1532 1531 1530 1529 1528 1527 1525 1524 1523 1522 1520 1519 1517 1516 1514 1513 1512 1511 1510
1516 1518 1520 1522 1523 1525 1527 1528 1529 1530 1529 1530 1530 1531 1531 1531 1530 1529 1529 1528 1527 1526 1525 1523 1522 1521 1520 1518 1517 1515 1513 1512 1510 1509 1508 1506 1505 1504
1512 1514 1516 1518 1520 1522 1523 1524 1525 1526 1525 1525 1526 1527 1527 1527 1526 1526 1525 1524 1523 1522 1520 1519 1518 1516 1515 1514 1512 1510 1508 1506 1505 1504 1502 1501 1499 1498
1509 1511 1513 1515 1516 1518 1520 1521 1522 1522 1522 1522 1522 1523 1523 1522 1522 1521 1521 1519 1518 1517 1516 1514 1513 1512 1510 1509 1507 1505 1503 1501 1499 1498 1496 1495 1493 1491
1506 1508 1509 1511 1513 1514 1516 1517 1518 1518 1518 1518 1518 1518 1518 1518 1518 1517 1516 1515 1514 1512 1511 1509 1508 1507 1505 1503 1501 1499 1497 1495 1494 1492 1490 1489 1487 1485
1502 1504 1506 1507 1509 1511 1512 1513 1514 1514 1515 1515 1514 1514 1515 1514 1514 1513 1511 1510 1509 1507 1506 1504 1503 1501 1500 1498 1496 1494 1492 1490 1488 1486 1484 1482 1480 1479
1499 1500 1502 1504 1505 1507 1508 1509 1510 1510 1511 1511 1510 1510 1510 1510 1509 1508 1507 1505 1504 1503 1501 1499 1498 1496 1494 1492 1490 1488 1486 1484 1482 1480 1478 1475 1474 1472
1495 1496 1498 1500 1501 1503 1504 1505 1506 1507 1506 1506 1506 1506 1506 1505 1505 1504 1503 1501 1498 1498 1496 1494 1493 1490 1488 1487 1485 1482 1480 1478 1476 1473 1471 1469 1467 1465
1491 1492 1494 1495 1497 1498 1500 1501 1502 1503 1503 1503 1502 1502 1501 1500 1500 1499 1498 1496 1494 1493 1491 1488 1487 1485 1483 1481 1479 1477 1475 1472 1469 1467 1464 1462 1459 1458
1487 1488 1489 1491 1492 1493 1495 1496 1497 1498 1498 1498 1498 1497 1497 1496 1495 1494 1493 1491 1489 1488 1486 1483 1481 1479 1477 1475 1473 1471 1469 1466 1463 1460 1457 1454 1452 1450
1482 1484 1485 1486 1487 1489 1490 1491 1491 1492 1493 1493 1493 1492 1492 1491 1490 1489 1487 1486 1483 1482 1481 1479 1476 1473 1470 1468 1467 1465 1462 1460 1457 1454 1450 1447 1445 1443
1478 1480 1481 1482 1483 1484 1485 1486 1486 1487 1487 1488 1487 1487 1486 1485 1485 1484 1483 1481 1479 1476 1475 1474 1471 1469 1464 1462 1461 1459 1457 1454 1451 1448 1444 1441 1439 1437
1474 1476 1477 1478 1479 1480 1481 1481 1481 1482 1482 1482 1482 1481 1481 1480 1479 1479 1478 1477 1475 1472 1471 1470 1467 1465 1462 1457 1455 1454 1451 1448 1445 1442 1439 1436 1434 1432
1470 1471 1472 1474 1474 1475 1476 1476 1477 1477 1477 1477 1477 1476 1476 1475 1474 1474 1473 1472 1470 1468 1466 1465 1462 1460 1457 1453 1450 1447 1446 1443 1440 1437 1434 1431 1429 1427
1467 1467 1468 1469 1470 1470 1471 1471 1472 1472 1472 1472 1472 1471 1471 1470 1469 1468 1467 1466 1464 1463 1461 1460 1458 1455 1453 1450 1446 1443 1440 1438 1435 1432 1429 1426 1424 1421
1463 1464 1464 1465 1465 1466 1466 1466 1467 1467 1467 1467 1467 1467 1466 1465 1464 1463 1462 1460 1458 1457 1456 1455 1453 1451 1448 1445 1442 1439 1436 1433 1430 1428 1425 1422 1419 1417
1459 1460 1460 1460 1460 1461 1461 1462 1462 1463 1462 1462 1462 1462 1461 1460 1459 1458 1457 1455 1454 1452 1450 1449 1447 1445 1443 1441 1437 1434 1432 1429 1427 1424 1420 1417 1414 1413
1456 1455 1456 1456 1456 1457 1457 1457 1458 1458 1458 1458 1458 1458 1457 1456 1455 1453 1452 1451 1449 1447 1445 1444 1442 1439 1437 1434 1433 1430 1427 1424 1422 1419 1416 1413 1409 1408
1452 1452 1452 1452 1453 1453 1453 1453 1453 1454 1454 1454 1453 1453 1452 1451 1450 1448 1447 1445 1444 1443 1441 1439 1437 1435 1432 1429 1426 1426 1423 1420 1417 1414 1412 1409 1405 1403
1448 1449 1449 1449 1449 1449 1449 1449 1449 1449 1449 1449 1448 1448 1447 1446 1445 1443 1442 1441 1439 1438 1436 1434 1433 1431 1429 1426 1422 1419 1419 1416 1413 1410 1407 1404 1401 1399
1445 1445 1446 1446 1446 1446 1445 1445 1445 1444 1444 1444 1443 1442 1442 1441 1439 1438 1437 1436 1434 1433 1431 1429 1428 1426 1424 1421 1418 1414 1413 1412 1409 1406 1403 1400 1396 1393
1443 1443 1443 1443 1442 1442 1441 1441 1440 1440 1439 1438 1438 1437 1436 1435 1434 1433 1432 1431 1429 1428 1426 1424 1423 1421 1419 1416 1413 1410 1407 1406 1404 1402 1400 1397 1394 1389
1440 1440 1439 1439 1439 1438 1437 1437 1436 1435 1434 1433 1432 1432 1431 1430 1429 1428 1427 1426 1424 1422 1421 1419 1417 1415 1414 1412 1409 1406 1404 1401 1399 1396 1395 1393 1391 1388